Regional Weather Roundup
Issued by NWS

Home | Current Version | Previous Version | Text Only | Print | Product List | Glossary Off
Versions: 1 2 3 4 5 6 7 8 9 10 11 12 13 14 15 16 17 18 19 20 21 22 23 24 25 26 27 28

000
ASUS45 KCYS 160810
RWRWY

WYOMING REGIONAL WEATHER ROUNDUP
NATIONAL WEATHER SERVICE CHEYENNE WY
200 AM MDT MON OCT 16 2017

NOTE:  "FAIR" INDICATES FEW OR NO CLOUDS BELOW 12,000 FEET
WITH NO SIGNIFICANT WEATHER AND/OR OBSTRUCTIONS TO VISIBILITY.

WYZ001-160900-
YELLOWSTONE NATIONAL PARK

CITY           SKY/WX    TMP DP  RH WIND       PRES   REMARKS
LK YELLOWSTONE   N/A     23  22  96 CALM      30.44F
W YELLOWSTONE  NOT AVBL

$$
WYZ002>013-054>058-071-098>099-160900-
NORTHERN WYOMING

CITY           SKY/WX    TMP DP  RH WIND       PRES   REMARKS
JACKSON        FAIR      25  23  92 N3        30.45S
CODY           FAIR      53  23  31 SW10      30.25F
GREYBULL       FAIR      32  26  78 CALM      30.24F
WORLAND        FAIR      29  27  92 CALM      30.24F
SHERIDAN       FAIR      30  25  81 SW3       30.17F
BUFFALO        FAIR      45  18  34 W9        30.21F
GILLETTE       FAIR      40  26  57 CALM      30.20F
HULETT         FAIR      46  27  46 SW9       30.21F
NEWCASTLE      FAIR      32  27  80 CALM      30.26S

$$
WYZ014>020-022>026-101>103-160900-
CENTRAL WYOMING

CITY           SKY/WX    TMP DP  RH WIND       PRES   REMARKS
BIG PINEY      FAIR      23  18  81 CALM      30.45S
PINEDALE       FAIR      21  19  93 NW7       30.45S WCI  13
DUBOIS         FAIR      34  19  55 NW12      30.36S WCI  25
LANDER         FAIR      42  28  57 CALM      30.30S
RIVERTON       FAIR      40  29  64 SW6       30.31S
CASPER         FAIR      47  18  31 SW8       30.29S
DOUGLAS        FAIR      31  24  75 CALM      30.28F

$$
WYZ021-027>030-104>119-160900-
SOUTHERN WYOMING

CITY           SKY/WX    TMP DP  RH WIND       PRES   REMARKS
EVANSTON       FAIR      39  16  39 S7        30.45S WCI  34
KEMMERER       FAIR      30  19  64 NW7       30.46R WCI  23
FORT BRIDGER   SUNNY     37  10  32 W10       30.46S WCI  30
ROCK SPRINGS   FAIR      38  10  31 S3        30.43S
DIXON          FAIR      29  18  63 E6        30.49S WCI  23
RAWLINS        FAIR      42  10  27 SW6       30.41F
SARATOGA       FAIR      30  19  64 E10       30.44S WCI  21
LARAMIE        FAIR      36  14  40 S9        30.41S WCI  29
CHEYENNE       FAIR      37  20  50 NW3       30.36F
TORRINGTON     FAIR      33  25  72 CALM      30.28F
PINE BLUFFS    FAIR      32  23  69 MISG      30.35F

$$




USA.gov is the U.S. government's official web portal to all federal, state and local government web resources and services.